Regional Weather Roundup
Issued by NWS

Home | Current Version | Previous Version | Text Only | Print | Product List | Glossary Off
Versions: 1 2 3 4 5 6 7 8 9 10 11 12 13 14 15 16 17 18 19 20 21 22 23 24 25 26 27 28 29 30 31 32 33 34 35 36 37 38 39 40 41 42 43 44 45 46 47 48 49 50

000
ASUS43 KOAX 161910
RWRNE

WEATHER ROUNDUP FOR NEBRASKA
NATIONAL WEATHER SERVICE OMAHA NE
100 PM CST TUE JAN 16 2018

NOTES: SATELLITE DATA IS BEING USED TO AUGMENT CLOUD COVER ABOVE
       12000 FEET.
       "FAIR" INDICATES FEW OR NO CLOUDS BELOW 12,000 FEET WITH NO
       SIGNIFICANT WEATHER AND/OR OBSTRUCTIONS TO VISIBILITY.


NEZ001>004-019>022-054>056-162000-
NEBRASKA PANHANDLE

CITY           SKY/WX    TMP DP  RH WIND       PRES   REMARKS
SCOTTSBLUFF    SUNNY      5  -1  76 SE3       30.45F
ALLIANCE       SUNNY     14   5  67 S3        30.44F
CHADRON        SUNNY     21   4  47 CALM      30.44F
GORDON         FAIR      17  -3  42 SW14      30.45F WCI   3
KIMBALL        SUNNY     27   1  32 SW6       30.38F WCI  20
SIDNEY         SUNNY     21   7  54 S10       30.44F WCI  10
$$

NEZ057>060-069>072-079>082-162000-
SOUTHWEST NEBRASKA

CITY           SKY/WX    TMP DP  RH WIND       PRES   REMARKS
NORTH PLATTE   SUNNY     12  -2  53 W7        30.61F WCI   1
IMPERIAL       SUNNY     13  -6  42 SW5       30.56F WCI   5
LEXINGTON      SUNNY     10  -2  59 NW6       30.66F WCI   0
MCCOOK         SUNNY     12  -1  56 W7        30.65F WCI   1
OGALLALA       SUNNY     15   2  56 SW6       30.55F WCI   7
$$

NEZ005>010-023>029-035>040-094-162000-
NORTH CENTRAL NEBRASKA

CITY           SKY/WX    TMP DP  RH WIND       PRES   REMARKS
VALENTINE      SUNNY     14  -2  49 SW12      30.56F WCI   0
AINSWORTH      SUNNY     10  -2  58 SW6       30.58F WCI   0
BROKEN BOW     SUNNY      6  -4  63 W7        30.62F WCI  -6
O`NEILL        SUNNY      5  -3  69 W5        30.66F WCI  -4
ORD            SUNNY      9  -2  61 N5        30.66F WCI   1
THEDFORD       SUNNY     11  -4  49 SW9       30.57F WCI  -2
$$

NEZ041-046>049-061>064-073>077-083>087-162000-
SOUTH CENTRAL NEBRASKA

CITY           SKY/WX    TMP DP  RH WIND       PRES   REMARKS
GRAND ISLAND   SUNNY      7   0  73 N7        30.70F WCI  -5
AURORA         SUNNY      9   1  70 NW9       30.70F WCI  -4
HASTINGS       SUNNY      6  -2  69 NW9       30.70F WCI  -8
HEBRON         SUNNY     11   3  71 NW9       30.73F WCI  -2
HOLDREGE       SUNNY     10   2  68 NW5       30.67F WCI   2
KEARNEY        SUNNY      6  -2  69 W7        30.69F WCI  -6
YORK           SUNNY     10   3  72 N7        30.70F WCI   0
$$

NEZ011>018-030>034-042>045-162000-
NORTHEAST NEBRASKA

CITY           SKY/WX    TMP DP  RH WIND       PRES   REMARKS
NORFOLK        SUNNY      7  -1  70 NW12      30.68F WCI  -8
ALBION         SUNNY     11  -1  60 NW7       30.68F WCI   0
BLAIR          SUNNY      5  -2  72 W10       30.70F WCI -10
COLUMBUS       SUNNY     11   1  64 NW13      30.72F WCI  -4
FREMONT        SUNNY      9   1  70 NW10      30.72F WCI  -6
TEKAMAH        SUNNY      6  -3  66 NW10      30.75F WCI  -9
WAYNE          SUNNY      4  -4  69 NW10      30.71F WCI -11
$$

NEZ050>053-065>068-078-088>093-162000-
SOUTHEAST NEBRASKA

CITY           SKY/WX    TMP DP  RH WIND       PRES   REMARKS
LINCOLN        SUNNY     12   2  64 NW10      30.74F WCI  -1
OMAHA EPPLEY   MOSUNNY    6  -3  66 N7        30.74F WCI  -6
BEATRICE       SUNNY     10   3  72 NW12      30.73F WCI  -4
FALLS CITY     MOSUNNY    6  -2  69 NW12      30.75F WCI  -9
NEBRASKA CITY  CLOUDY     6   1  78 NW7       30.73F WCI  -5
PLATTSMOUTH    CLOUDY     5  -1  77 NW12      30.72F WCI -11
$$

NEZ044-045-051>053-067-162000-
OMAHA AREA

CITY           SKY/WX    TMP DP  RH WIND       PRES   REMARKS
OMAHA EPPLEY   MOSUNNY    6  -3  66 N7        30.74F WCI  -6
BLAIR          SUNNY      5  -2  72 W10       30.70F WCI -10
FREMONT        SUNNY      9   1  70 NW10      30.72F WCI  -6
MILLARD        PTSUNNY    8  -1  67 NW7       30.75F WCI  -4
OFFUTT AFB     CLOUDY     5  -3  67 NW8       30.74F WCI  -8
PLATTSMOUTH    CLOUDY     5  -1  77 NW12      30.72F WCI -11
WAHOO          FAIR      10   2  71 NW10      30.73F WCI  -4
$$




USA.gov is the U.S. government's official web portal to all federal, state and local government web resources and services.